GW7113 Weather Reports


time (UTC)temp
C
wind
direction
speed
KPH
gust
KPH
rain 1hr
cm
rain 24hr
cm
rain mn
cm
humidity
%
barometer
mb
20260510045359 22 156 9.7 17.7 0.00 0.05 0.05 81 1013.2
20260510044632 22 156 11.3 20.9 0.00 0.05 0.05 80 1013.2
20260510044132 22 150 12.9 20.9 0.00 0.05 0.05 80 1013.2
20260510043632 22 160 11.3 16.1 0.00 0.05 0.05 80 1013.2
20260510043132 22 172 8.0 17.7 0.00 0.05 0.05 80 1013.1
20260510042632 22 155 11.3 17.7 0.00 0.05 0.05 79 1013.2
20260510042132 22 143 11.3 17.7 0.00 0.05 0.05 79 1013.2
20260510041632 22 150 8.0 17.7 0.00 0.05 0.05 79 1013.0
20260510041131 22 157 9.7 17.7 0.00 0.05 0.05 79 1013.3
20260510040632 22 159 11.3 17.7 0.00 0.05 0.05 78 1013.3
20260510040132 22 149 8.0 20.9 0.00 0.05 0.05 78 1013.2
20260510035632 22 158 8.0 20.9 0.00 0.05 0.05 77 1013.3
20260510035132 22 165 9.7 20.9 0.00 0.05 0.05 77 1013.3
20260510034632 22 145 9.7 17.7 0.00 0.05 0.05 77 1013.2
20260510034132 22 147 9.7 16.1 0.00 0.05 0.05 76 1013.3
20260510033853 22 164 6.4 16.1 0.00 0.05 0.05 75 1013.4
20260510033132 22 134 11.3 16.1 0.00 0.05 0.05 75 1013.2
20260510032632 22 139 9.7 14.5 0.00 0.05 0.05 75 1013.2
20260510031632 22 145 6.4 14.5 0.00 0.05 0.05 75 1013.1
20260510031131 22 124 8.0 14.5 0.00 0.05 0.05 75 1013.0
20260510030632 23 132 6.4 14.5 0.00 0.05 0.05 75 1013.1
20260510030132 23 125 8.0 14.5 0.00 0.05 0.05 75 1012.9
20260510025632 23 123 6.4 12.9 0.00 0.05 0.05 74 1012.9
20260510025131 23 111 8.0 16.1 0.00 0.05 0.05 74 1012.8
20260510024626 23 109 8.0 16.1 0.00 0.05 0.05 74 1012.6
20260510024119 23 90 8.0 12.9 0.00 0.05 0.05 74 1012.8
20260510023620 23 108 6.4 16.1 0.00 0.05 0.05 74 1012.5
20260510023119 23 140 9.7 16.1 0.00 0.05 0.05 74 1012.6
20260510022619 24 120 9.7 14.5 0.00 0.05 0.05 73 1012.5
20260510022119 24 124 8.0 16.1 0.00 0.05 0.05 73 1012.3
20260510021620 24 115 6.4 16.1 0.00 0.05 0.05 72 1012.2
20260510020619 24 120 9.7 16.1 0.00 0.05 0.05 71 1011.8
20260510020120 25 105 9.7 16.1 0.00 0.05 0.05 71 1011.9
20260510015620 25 107 9.7 16.1 0.00 0.05 0.05 70 1011.9
20260510015120 25 136 12.9 17.7 0.00 0.05 0.05 68 1012.1
20260510014620 25 114 11.3 20.9 0.00 0.05 0.05 67 1011.8
20260510014120 26 116 11.3 20.9 0.00 0.05 0.05 66 1011.6
20260510013608 26 101 9.7 27.4 0.00 0.05 0.05 64 1011.6
20260510013108 26 105 11.3 27.4 0.00 0.05 0.05 62 1011.4
20260510012608 27 102 6.4 16.1 0.00 0.05 0.05 59 1011.6
20260510012108 27 94 8.0 11.3 0.00 0.05 0.05 58 1011.4
20260510011108 27 69 6.4 11.3 0.00 0.05 0.05 57 1011.2
20260510010608 27 71 6.4 11.3 0.00 0.05 0.05 56 1011.3
20260510005608 28 70 4.8 11.3 0.00 0.05 0.05 52 1011.0
20260510004608 30 76 6.4 9.7 0.00 0.05 0.05 49 1011.0
20260510004107 31 71 4.8 9.7 0.00 0.05 0.05 46 1011.1
20260510003607 33 84 6.4 9.7 0.00 0.05 0.05 41 1011.1
20260510003328 35 101 3.2 4.8 0.00 0.05 0.05 39 1011.1
20260510002828 36 114 1.6 3.2 0.00 0.05 0.05 37 1011.1
20260510002107 38 114 1.6 3.2 0.00 0.05 0.05 39 1011.0
20260510001607 37 114 1.6 3.2 0.00 0.05 0.05 39 1011.1
20260510001107 37 114 0.0 3.2 0.00 0.05 0.05 39 1011.0
20260510000607 36 114 0.0 3.2 0.00 0.05 0.05 37 1011.1
20260510000108 36 114 0.0 3.2 0.00 0.05 0.05 39 1011.0
20260509235607 35 114 0.0 3.2 0.00 0.05 0.05 40 1011.0
20260509235108 35 114 0.0 3.2 0.00 0.05 0.05 39 1010.7
20260509234608 35 114 1.6 6.4 0.00 0.05 0.05 38 1011.1
20260509234108 34 114 3.2 6.4 0.00 0.05 0.05 38 1011.0
20260509233608 35 113 3.2 9.7 0.00 0.05 0.05 37 1011.1
20260509233337 36 135 3.2 9.7 0.00 0.05 0.05 34 1011.1
20260509232607 37 96 4.8 6.4 0.00 0.05 0.05 37 1010.8
20260509232108 37 83 1.6 6.4 0.00 0.05 0.05 33 1010.7
20260509231608 38 58 6.4 6.4 0.00 0.05 0.05 34 1010.8
20260509231107 38 22 1.6 9.7 0.00 0.05 0.05 35 1011.0
20260509230607 38 37 4.8 9.7 0.00 0.05 0.05 34 1011.0
20260509225607 38 338 0.0 6.4 0.00 0.05 0.05 33 1010.8
20260509225108 38 349 3.2 9.7 0.00 0.05 0.05 34 1011.1
20260509224608 38 310 0.0 9.7 0.00 0.05 0.05 34 1010.8
20260509224330 38 26 4.8 9.7 0.00 0.05 0.05 36 1011.1
20260509223607 39 43 3.2 9.7 0.00 0.05 0.05 35 1011.0
20260509223107 39 340 1.6 9.7 0.00 0.05 0.05 34 1011.1
20260509222607 38 16 3.2 12.9 0.00 0.05 0.05 36 1011.1
20260509222107 38 54 3.2 12.9 0.00 0.05 0.05 37 1011.2
20260509221556 37 347 3.2 11.3 0.00 0.05 0.05 38 1011.1
20260509221056 37 334 3.2 12.9 0.00 0.05 0.05 38 1011.2
20260509220815 37 326 6.4 14.5 0.00 0.05 0.05 37 1011.4
20260509220055 37 16 3.2 14.5 0.00 0.05 0.05 36 1011.3
20260509215555 36 7 6.4 12.9 0.00 0.05 0.05 39 1011.1
20260509215056 36 338 4.8 9.7 0.00 0.05 0.05 41 1011.1
20260509214556 35 298 3.2 11.3 0.00 0.05 0.05 41 1011.3
20260509214056 37 346 9.7 14.5 0.00 0.05 0.05 40 1011.5
20260509213556 37 327 8.0 14.5 0.00 0.05 0.05 36 1011.4
20260509213056 37 353 6.4 14.5 0.00 0.05 0.05 39 1011.3
20260509212556 37 292 3.2 14.5 0.00 0.05 0.05 39 1011.3
20260509212314 36 15 4.8 14.5 0.00 0.05 0.05 41 1011.5
20260509211555 35 329 4.8 14.5 0.00 0.05 0.05 41 1011.3
20260509211055 34 7 4.8 9.7 0.00 0.05 0.05 42 1011.4
20260509210555 32 321 3.2 14.5 0.00 0.05 0.05 46 1011.5
20260509210055 32 291 4.8 14.5 0.00 0.05 0.05 44 1011.6
20260509205555 33 265 4.8 11.3 0.00 0.05 0.05 43 1011.6
20260509205055 34 309 4.8 16.1 0.00 0.05 0.05 41 1011.8
20260509204555 34 267 4.8 16.1 0.00 0.05 0.05 45 1011.9
20260509204056 33 306 11.3 16.1 0.00 0.05 0.05 46 1012.1
20260509203556 33 324 6.4 14.5 0.00 0.05 0.05 42 1011.9
20260509203056 33 229 1.6 14.5 0.00 0.05 0.05 46 1012.0
20260509202817 32 349 6.4 9.7 0.00 0.05 0.05 46 1012.1
20260509202055 32 257 3.2 17.7 0.00 0.05 0.05 48 1012.2
20260509201555 32 206 9.7 17.7 0.00 0.05 0.05 46 1012.1
20260509201056 32 292 11.3 16.1 0.00 0.05 0.05 45 1012.2
20260509200556 32 275 8.0 16.1 0.00 0.05 0.05 49 1012.2
20260509200055 32 308 6.4 17.7 0.00 0.05 0.05 48 1012.4
20260509195556 32 138 3.2 17.7 0.00 0.05 0.05 50 1012.2
20260509195056 32 248 12.9 16.1 0.00 0.05 0.05 50 1012.5
20260509194556 31 245 11.3 22.5 0.00 0.05 0.05 52 1012.4
20260509194055 31 256 8.0 22.5 0.00 0.05 0.05 54 1012.6
20260509193555 30 273 4.8 12.9 0.00 0.05 0.05 53 1012.8
20260509193056 31 224 9.7 12.9 0.00 0.05 0.05 51 1012.9
20260509192556 32 245 3.2 12.9 0.00 0.05 0.05 48 1013.2
20260509192320 31 355 4.8 16.1 0.00 0.05 0.05 57 1013.3
20260509191555 31 240 6.4 20.9 0.00 0.05 0.05 53 1013.3
20260509191055 31 224 3.2 20.9 0.00 0.05 0.05 56 1013.4
20260509190555 30 191 8.0 16.1 0.00 0.05 0.05 56 1013.4
20260509190317 29 254 6.4 12.9 0.00 0.05 0.05 61 1013.5
20260509185555 28 235 8.0 20.9 0.00 0.05 0.05 59 1013.5
20260509185056 28 261 9.7 20.9 0.00 0.05 0.05 60 1013.5
20260509184055 30 208 6.4 11.3 0.00 0.05 0.05 57 1013.5
20260509183556 30 282 4.8 17.7 0.00 0.05 0.05 57 1013.6
20260509183055 30 335 8.0 17.7 0.00 0.05 0.05 56 1013.6
20260509182556 30 224 12.9 16.1 0.00 0.05 0.05 58 1013.7
20260509182056 29 177 11.3 17.7 0.00 0.05 0.05 59 1013.6
20260509181555 29 222 6.4 17.7 0.00 0.05 0.05 59 1013.9
20260509181320 29 184 12.9 24.1 0.00 0.05 0.05 60 1013.9
20260509180556 29 229 3.2 24.1 0.00 0.05 0.05 62 1014.0
20260509180055 28 218 8.0 20.9 0.00 0.05 0.05 67 1014.0
20260509175815 28 218 16.1 22.5 0.00 0.05 0.05 65 1013.9
20260509175056 28 218 6.4 25.7 0.00 0.05 0.05 67 1013.9
20260509174556 28 216 8.0 30.6 0.00 0.05 0.05 66 1013.8
20260509174043 28 193 14.5 30.6 0.00 0.05 0.05 65 1014.0
20260509173543 28 175 14.5 25.7 0.00 0.05 0.05 69 1013.9
20260509173043 28 250 19.3 25.7 0.00 0.05 0.05 67 1014.1
20260509172543 28 191 11.3 27.4 0.00 0.05 0.05 69 1014.1
20260509172044 28 212 12.9 27.4 0.00 0.05 0.05 68 1014.0
20260509171544 28 194 9.7 24.1 0.00 0.05 0.05 69 1014.1
20260509171043 28 232 8.0 24.1 0.00 0.05 0.05 69 1014.1
20260509170544 28 178 17.7 29.0 0.00 0.05 0.05 68 1014.1
20260509170044 28 169 16.1 29.0 0.00 0.05 0.05 69 1014.0
20260509165545 28 166 11.3 22.5 0.00 0.05 0.05 67 1014.2
20260509165044 28 177 14.5 22.5 0.00 0.05 0.05 68 1014.0
20260509164543 27 181 16.1 22.5 0.00 0.05 0.05 71 1014.1
20260509164312 27 161 9.7 25.7 0.00 0.05 0.05 71 1014.3
20260509163543 27 194 14.5 25.7 0.00 0.05 0.05 71 1014.2
20260509163043 27 200 14.5 27.4 0.00 0.05 0.05 70 1014.4
20260509162544 27 148 14.5 27.4 0.00 0.05 0.05 71 1014.5
20260509161544 27 166 9.7 24.1 0.00 0.05 0.05 73 1014.3
20260509161044 27 158 9.7 25.7 0.00 0.05 0.05 70 1014.3
20260509160543 27 196 8.0 25.7 0.00 0.05 0.05 73 1014.4
20260509160043 27 164 11.3 25.7 0.00 0.05 0.05 73 1014.4
20260509155543 27 198 12.9 22.5 0.00 0.05 0.05 72 1014.5
20260509155043 26 188 8.0 17.7 0.00 0.05 0.05 74 1014.3
20260509154544 26 185 9.7 16.1 0.00 0.05 0.05 74 1014.4
20260509154044 26 165 12.9 16.1 0.00 0.05 0.05 77 1014.3
20260509153544 26 151 9.7 17.7 0.00 0.05 0.05 78 1014.0
20260509153044 25 158 6.4 17.7 0.00 0.05 0.05 79 1013.9
20260509152543 25 175 9.7 16.1 0.00 0.05 0.05 80 1013.9
20260509151543 25 178 9.7 14.5 0.00 0.05 0.05 82 1013.6
20260509151304 24 138 8.0 14.5 0.00 0.05 0.05 83 1013.8
20260509150544 24 189 6.4 16.1 0.00 0.05 0.05 84 1013.9
20260509150044 23 159 3.2 17.7 0.00 0.05 0.05 87 1014.0
20260509145544 23 171 6.4 20.9 0.00 0.05 0.05 89 1013.9
20260509145305 22 181 6.4 22.5 0.00 0.05 0.05 91 1013.9
20260509144805 22 163 14.5 22.5 0.00 0.05 0.05 91 1013.9
20260509143543 21 148 3.2 25.7 0.00 0.05 0.05 93 1014.1
20260509143044 21 199 6.4 35.4 0.00 0.05 0.05 93 1013.4
20260509142543 21 149 12.9 35.4 0.00 0.05 0.05 94 1012.8
20260509142044 21 182 14.5 30.6 0.00 0.05 0.05 94 1012.5
20260509141544 21 172 14.5 30.6 0.00 0.05 0.05 94 1012.6
20260509141043 21 187 16.1 30.6 0.00 0.05 0.05 94 1012.8
20260509140809 21 166 16.1 24.1 0.00 0.05 0.05 93 1012.8
20260509140304 21 159 12.9 24.1 0.00 0.05 0.05 94 1012.5
20260509135544 21 197 12.9 20.9 0.00 0.05 0.05 96 1012.8
20260509134544 21 176 9.7 14.5 0.00 0.05 0.05 98 1013.1
20260509134044 21 162 9.7 11.3 0.00 0.05 0.05 99 1013.0
20260509133544 20 166 3.2 9.7 0.00 0.05 0.05 98 1013.2
20260509133044 20 165 1.6 11.3 0.00 0.05 0.05 98 1013.1
20260509132543 20 166 6.4 12.9 0.00 0.05 0.05 98 1013.1
20260509132043 20 147 8.0 12.9 0.00 0.05 0.05 98 1013.2
20260509131544 20 178 6.4 16.1 0.00 0.05 0.05 98 1013.4
20260509131043 20 164 4.8 16.1 0.00 0.05 0.05 98 1013.3
20260509130543 19 182 8.0 12.9 0.00 0.05 0.05 98 1013.4
20260509130044 19 236 1.6 12.9 0.00 0.05 0.05 98 1013.7
20260509125544 19 191 8.0 11.3 0.00 0.05 0.05 98 1013.8
20260509124543 19 214 6.4 12.9 0.00 0.05 0.05 99 1013.8
20260509124043 19 180 6.4 12.9 0.00 0.05 0.05 99 1013.5
20260509123543 18 195 6.4 11.3 0.00 0.05 0.05 98 1013.3
20260509123043 18 169 6.4 11.3 0.00 0.05 0.05 98 1013.2
20260509122801 18 166 6.4 11.3 0.00 0.05 0.05 98 1013.2
20260509122044 18 143 6.4 6.4 0.00 0.05 0.05 98 1013.5
20260509121544 18 355 1.6 3.2 0.00 0.05 0.05 98 1013.4
20260509121048 18 356 1.6 3.2 0.00 0.05 0.05 98 1013.4
20260509120544 18 356 0.0 3.2 0.03 0.05 0.05 98 1013.5
20260509115543 19 357 1.6 4.8 0.03 0.05 0.05 98 1013.9
20260509115043 19 355 1.6 14.5 0.03 0.05 0.05 98 1013.9
20260509114543 19 8 1.6 16.1 0.03 0.05 0.05 98 1014.1
20260509114044 19 22 9.7 16.1 0.03 0.05 0.05 98 1014.1
20260509113544 19 342 4.8 12.9 0.05 0.05 0.05 98 1014.1
20260509113044 19 11 4.8 9.7 0.05 0.05 0.05 98 1014.2
20260509112543 19 26 0.0 11.3 0.05 0.05 0.05 98 1014.0
20260509112044 19 20 4.8 16.1 0.05 0.05 0.05 98 1014.2
20260509111544 19 8 8.0 16.1 0.05 0.05 0.05 98 1014.2
20260509111044 19 21 9.7 17.7 0.05 0.05 0.05 98 1014.3
20260509110544 19 6 9.7 17.7 0.03 0.03 0.03 98 1014.5
20260509105544 19 344 9.7 24.1 0.03 0.03 0.03 98 1014.3
20260509105044 19 313 14.5 17.7 0.03 0.03 0.03 98 1014.5
20260509104544 19 346 6.4 22.5 0.03 0.03 0.03 98 1014.4
20260509104045 19 335 9.7 30.6 0.03 0.03 0.03 98 1014.7
20260509103544 19 358 9.7 30.6 0.00 0.00 0.00 98 1014.7
20260509103044 19 358 11.3 29.0 0.00 0.00 0.00 98 1014.7
20260509102544 19 344 11.3 29.0 0.00 0.00 0.00 98 1014.5
20260509102044 20 356 9.7 27.4 0.00 0.00 0.00 98 1014.5
20260509101544 20 7 11.3 27.4 0.00 0.00 0.00 98 1014.2
20260509101307 20 14 16.1 24.1 0.00 0.00 0.00 98 1014.1
20260509100543 20 335 4.8 14.5 0.00 0.00 0.00 98 1013.4
20260509100043 20 160 8.0 14.5 0.00 0.00 0.00 98 1012.8
20260509095544 20 139 6.4 11.3 0.00 0.00 0.00 98 1012.3
20260509095043 20 140 8.0 11.3 0.00 0.00 0.00 98 1012.3
20260509094543 20 144 3.2 6.4 0.00 0.00 0.00 98 1012.3
20260509094043 20 123 1.6 6.4 0.00 0.00 0.00 98 1012.8
20260509093544 20 120 3.2 9.7 0.00 0.00 0.00 98 1012.5
20260509093309 20 122 4.8 9.7 0.00 0.00 0.00 98 1012.3
20260509092544 20 138 3.2 4.8 0.00 0.00 0.00 98 1012.2
20260509092044 20 139 3.2 4.8 0.00 0.00 0.00 97 1012.1
20260509091805 20 132 1.6 4.8 0.00 0.00 0.00 97 1012.1
20260509091044 20 131 3.2 4.8 0.00 0.00 0.00 97 1012.2
20260509090543 20 131 0.0 4.8 0.00 0.00 0.00 97 1012.5
20260509090043 20 190 1.6 3.2 0.00 0.00 0.00 97 1012.4
20260509085543 20 190 0.0 3.2 0.00 0.00 0.00 97 1012.6
20260509085259 20 190 1.6 3.2 0.00 0.00 0.00 97 1012.6
20260509084544 20 190 1.6 3.2 0.00 0.00 0.00 97 1012.9
20260509084044 20 190 1.6 3.2 0.00 0.00 0.00 97 1013.1
20260509083043 20 191 0.0 1.6 0.00 0.00 0.00 97 1013.0
20260509082806 20 191 0.0 1.6 0.00 0.00 0.00 97 1013.0
20260509082044 20 191 0.0 1.6 0.00 0.00 0.00 97 1012.9
20260509081044 20 191 0.0 3.2 0.00 0.00 0.00 97 1013.0
20260509080544 20 191 0.0 3.2 0.00 0.00 0.00 97 1013.1
20260509080044 20 191 0.0 3.2 0.00 0.00 0.00 97 1012.9
20260509075544 20 191 1.6 1.6 0.00 0.00 0.00 97 1013.2
20260509075044 20 191 0.0 1.6 0.00 0.00 0.00 97 1013.2
20260509074544 20 191 0.0 1.6 0.00 0.00 0.00 97 1013.3
20260509074043 20 191 0.0 1.6 0.00 0.00 0.00 97 1013.3
20260509073544 20 191 0.0 1.6 0.00 0.00 0.00 97 1013.3
20260509073044 20 191 0.0 1.6 0.00 0.00 0.00 97 1013.2
20260509072544 20 191 0.0 4.8 0.00 0.00 0.00 97 1013.3
20260509072043 20 191 0.0 4.8 0.00 0.00 0.00 97 1013.0
20260509071544 20 191 1.6 9.7 0.00 0.00 0.00 97 1013.1
20260509071044 20 167 3.2 9.7 0.00 0.00 0.00 97 1013.1
20260509070803 20 183 6.4 11.3 0.00 0.00 0.00 97 1013.1
20260509070043 20 174 3.2 11.3 0.00 0.00 0.00 97 1013.1
20260509065544 20 180 3.2 9.7 0.00 0.00 0.00 97 1013.1
20260509065044 20 184 3.2 9.7 0.00 0.00 0.00 97 1012.9
20260509064544 20 200 4.8 12.9 0.00 0.00 0.00 97 1012.9
20260509064044 20 230 6.4 12.9 0.00 0.00 0.00 97 1013.0
20260509063544 20 223 6.4 12.9 0.00 0.00 0.00 97 1012.8
20260509063044 20 210 4.8 12.9 0.00 0.00 0.00 97 1012.6
20260509062544 20 217 4.8 12.9 0.00 0.00 0.00 97 1012.3
20260509062044 20 213 3.2 17.7 0.00 0.00 0.00 97 1012.6
20260509061545 20 189 9.7 17.7 0.00 0.00 0.00 97 1012.6
20260509061044 20 190 11.3 22.5 0.00 0.00 0.00 97 1012.4
20260509060544 20 139 9.7 27.4 0.00 0.00 0.00 97 1012.4
20260509060044 20 188 9.7 27.4 0.00 0.00 0.00 97 1012.8
20260509055544 19 187 17.7 25.7 0.00 0.00 0.00 97 1012.4
20260509055044 19 180 12.9 25.7 0.00 0.00 0.00 97 1012.5
20260509054544 19 184 14.5 25.7 0.00 0.00 0.00 97 1013.0
20260509054044 19 171 12.9 30.6 0.00 0.00 0.00 97 1012.6
20260509053044 19 171 16.1 27.4 0.00 0.00 0.00 97 1012.8
20260509052543 19 181 17.7 27.4 0.00 0.00 0.00 97 1012.9
20260509052043 19 162 16.1 27.4 0.00 0.00 0.00 97 1012.6
20260509051543 19 164 19.3 27.4 0.00 0.00 0.00 97 1012.9
20260509051043 19 174 12.9 24.1 0.00 0.00 0.00 98 1012.6
20260509050544 19 179 9.7 27.4 0.00 0.00 0.00 98 1012.9
20260509050043 19 178 16.1 27.4 0.00 0.00 0.00 98 1012.5
20260509045544 19 151 12.9 25.7 0.00 0.00 0.00 98 1012.8